Weather Roundup
Issued by NWS

Home | Current Version | Previous Version | Text Only | Print | Product List | Glossary On
Versions: 1 2 3 4 5 6 7 8 9 10 11 12 13 14 15 16 17 18 19 20 21 22 23 24 25 26 27 28 29 30 31 32 33 34 35 36 37 38 39 40 41 42 43 44 45 46 47 48 49 50
731
NZUS93 KARX 270359
HRRWXR

CURRENT HOURLY OBSERVATIONS ACROSS
MUCH OF THE UPPER MISSISSIPPI VALLEY
NATIONAL WEATHER SERVICE LA CROSSE WI
1100 PM CDT SUN MAR 26 2017


...SOUTHEAST MINNESOTA...


CITY           SKY/WX    TMP DP  RH WIND       PRES   REMARKS
ROCHESTER      CLOUDY    39  38  96 NW8       29.93S FOG     WCI  33
ROCHESTER/MAYO CLOUDY    39  40 100 W7        29.93S WCI  34
WINONA         CLOUDY    41  37  87 CALM      29.94S
AUSTIN         CLOUDY    39  37  93 CALM      29.93S FOG
ALBERT LEA     CLOUDY    39  39 100 CALM      29.94S FOG
DODGE CENTER   CLOUDY    39  37  93 NW3       29.93S FOG
PRESTON          N/A    N/A N/A N/A CALM      29.92R
OWATONNA       DRIZZLE   39  37  93 NW3       29.94F
FARIBAULT      CLOUDY    39  39 100 NW3       29.95S FOG
$$

...ELSEWHERE IN MINNESOTA...


CITY           SKY/WX    TMP DP  RH WIND       PRES   REMARKS
MINNEAPOLIS    CLOUDY    40  35  83 N5        29.96R
INTNL FALLS    CLOUDY    36  30  79 CALM      29.92F
DULUTH         CLOUDY    32  31  96 CALM      29.91F FOG
RED WING       CLOUDY    41  39  93 CALM      29.94R FOG
REDWOOD FALLS  CLOUDY    40  36  86 S6        29.96R
MANKATO        CLOUDY    39  37  92 N7        29.96S WCI  34
WORTHINGTON    CLOUDY    39  37  92 SW6       29.97F WCI  35
FAIRMONT       CLOUDY    40  37  89 CALM      29.97R
$$

...SOUTHWEST WISCONSIN...


CITY           SKY/WX    TMP DP  RH WIND       PRES   REMARKS
LA CROSSE      CLOUDY    42  40  92 CALM      29.93R
PRAIRIE DU CHI CLOUDY    42  40  91 CALM      29.92S
BOSCOBEL       CLOUDY    43  42  97 CALM      29.93S FOG
LONE ROCK      NOT AVBL
PLATTEVILLE    CLOUDY    44  44 100 NW5       29.91F
FORT MC COY    CLOUDY    39  39 100 CALM      29.92R FOG
CAMP DOUGLAS   CLOUDY    39  39 100 W5        29.90S
MAUSTON-NEW LI FOG       39  39  99 CALM      29.89S VSB 1/2
VIROQUA        CLOUDY    39  39 100 CALM      29.91R VSB 1/4
WIS DELLS      CLOUDY    39  38  97 NW3       29.90S FOG
$$

...ELSEWHERE IN WISCONSIN...


CITY           SKY/WX    TMP DP  RH WIND       PRES   REMARKS
MILWAUKEE      CLOUDY    42  40  92 CALM      29.88R FOG
MADISON        CLOUDY    40  39  97 W3        29.90S
GREEN BAY      LGT RAIN  37  37 100 CALM      29.88S FOG
EAU CLAIRE     NOT AVBL
BLACK RVR FLS  CLOUDY    40  40 100 CALM      29.91R FOG
MEDFORD        CLOUDY    37  37  99 N3        29.86F
WAUSAU         CLOUDY    38  38 100 CALM      29.86S
WIS RAPIDS     CLOUDY    39  39 100 W3        29.90R FOG
MARSHFIELD     FOG       38  37  97 W3        29.88R VSB 3/4
RICE LAKE      CLOUDY    37  36  96 CALM      29.93S
$$

...NORTHEAST IOWA...


CITY           SKY/WX    TMP DP  RH WIND       PRES   REMARKS
WATERLOO       CLOUDY    43  41  93 NW6       29.93S
DUBUQUE        CLOUDY    44  43  96 N6        29.90F FOG
DECORAH        CLOUDY    41  39  93 NW5       29.91S FOG
MASON CITY     CLOUDY    41  40  96 NW6       29.96R FOG
CHARLES CITY   CLOUDY    41  41 100 CALM      29.94S
OELWEIN        CLOUDY    43  43 100 NW7       29.93S
$$

...ELSEWHERE IN IOWA...


CITY           SKY/WX    TMP DP  RH WIND       PRES   REMARKS
DES MOINES     CLOUDY    46  44  93 N3        29.94F
IOWA CITY      CLOUDY    48  45  89 W5        29.95S
FORT DODGE     CLOUDY    43  37  81 NW5       29.97S
MARSHALLTOWN   CLOUDY    45  43  93 N3        29.94S
CEDAR RAPIDS   CLOUDY    45  45 100 W5        29.92S
$$

...NORTHERN ILLINOIS...


CITY           SKY/WX    TMP DP  RH WIND       PRES   REMARKS
CHICAGO-OHARE  CLOUDY    53  49  86 SW8       29.88R
CHICAGO-MIDWAY CLOUDY    52  50  93 SW14      29.89S
MOLINE         CLOUDY    49  45  86 W9        29.92S
ROCKFORD       CLOUDY    50  49  96 NW8       29.91R FOG
PEORIA         CLOUDY    50  48  93 SW7       29.95R
$$

NOTE: "FAIR" INDICATES FEW OR NO CLOUDS BELOW 12,000 FEET WITH NO
SIGNIFICANT WEATHER AND/OR OBSTRUCTIONS TO VISIBILITY. WIND
SPEEDS ARE IN MILES-PER-HOUR.




USA.gov is the U.S. government's official web portal to all federal, state and local government web resources and services.